Showing default

SPACEBEE-7, 43816

Orbit data source: Space-Track

SPACEBEE-7, 43816 is a payload satellite owned by Swarm Tech (US) in SSO that was launched on Mon, 03 Dec 2018 UTC via an FALCON 9 launch vehicle from the Air Force Western Test Range (AFWTR). Payload-class satellites include a variety of spacecraft equipped with specific instruments for various scientific and technological missions. These include communications satellites like Starlink; space stations such as the ISS; scientific satellites like the Hubble; Earth observation satellites from companies like Planet Labs, Umbra, and HawkEye 360; GPS; miniature CubeSats for education and research; and military/defense satellites.

Loading next visibility...
Identifier
43816, 2018-099BL
Orbit
SSO
Country
Flag of USUS
Related business
Manufacturer
Swarm Tech
Mission
Operational Commercial Communications
Bus & Motor
CUBESAT 1U, Unknown motor
Mass
1 kg wet, 1 kg dry
Launch date (UTC)
2018-12-03 (7 years ago)
Launch vehicle
FALCON 9
Launch site
Air Force Western Test Range (AFWTR)
Object type
Payload
Rocket body
Debris
Shape & HBR
Box, 1.0 m
Radar Cross Section
0.017 m², Small (<0.1 m²)

Expand to show TLE details & history
Last TLE update: 18 hours ago

TLE from 18 hours ago
0 SPACEBEE-7
1 43816U 18099BL  26034.18795078  .00276433  00000-0  17352-2 0  9994
2 43816  97.4589 118.0164 0004351 294.7342  65.3470 15.75962893393736
Epoch: 2026-02-03T04:30Z
TLE epoch observation values (Epoch: 2026-02-03T04:30:38.947Z)
Latitude
-0.00002°
Longitude
-83.01835°
Altitude
343.838 km
Speed
7.703 km/s
True Right ascension
07h 52m 03s
True Declination
0° 00' 00"
Sunlit
Object was in full shadow at epoch
Visualization orbit readout
Latitude
Unknown
Longitude
Unknown
Altitude
Unknown
Speed
Unknown
Apparent Right ascension
Unknown
Apparent Declination
Unknown
Sunlit
N/A
Visualization observer readout
Local Sidereal Time
00:33:56
Azimuth
Unknown
Elevation
Unknown
Doppler factor
Unknown
Orbital elements
Apogee altitude
341.709 km
Perigee altitude
335.864 km
Semi-major axis
6,716.924 km
Eccentricity
0.00044
Inclination
97.4589°
RAAN
118.0164°
Arg. of periapsis
294.7342°
True anomaly
65.39232°
Mean anomaly
65.347°
Eccentric anomaly
65.36966°
Mean motion
3.94264 °/min
Orbital period
91.31 mins
BSTAR
0.0017352
Loading maneuver chart data...
Computing Atmospheric mass density...
Loading historical data...
Loading historical data...
Loading historical data...
Loading historical data...
Loading historical data...
Loading historical data...
Loading historical data...

Documentation

Showing up to 5 results
|